Regional Weather Roundup
Issued by NWS

Home | Current Version | Previous Version | Text Only | Print | Product List | Glossary On
Versions: 1 2 3 4 5 6 7 8 9 10 11 12 13 14 15 16 17 18 19 20 21 22 23 24 25 26 27 28 29 30 31 32 33 34 35 36 37 38 39 40 41 42 43 44 45 46 47 48 49 50
000
ASUS43 KLOT 031910
RWRIL

ILLINOIS REGIONAL WEATHER ROUNDUP
NATIONAL WEATHER SERVICE CHICAGO/ROMEOVILLE IL
100 PM CST TUE MAR 03 2015

NOTE: "FAIR" INDICATES FEW OR NO CLOUDS BELOW 12,000 FEET WITH NO
SIGNIFICANT WEATHER AND/OR OBSTRUCTIONS TO VISIBILITY.

* THESE STATIONS ARE NOT UNDER NWS QUALITY CONTROL. THEY ALSO MAY NOT
  REPORT WEATHER SUCH AS PRECIPITATION OR FOG.

ILZ001-002-007-009-015-016-024-032000-
NORTHWEST ILLINOIS

CITY           SKY/WX    TMP DP  RH WIND       PRES   REMARKS
MOLINE         CLOUDY    33  31  92 W14       29.68F FOG     WCI  23
STERLING*      CLOUDY    34  30  86 W14G20    29.67F WCI  24
SAVANNA*       CLOUDY    33  32  93 W13       29.66F FOG     WCI  24
$$

ILZ003-004-008-010-011-017-018-032000-
NORTH CENTRAL ILLINOIS

CITY           SKY/WX    TMP DP  RH WIND       PRES   REMARKS
ROCKFORD       DRIZZLE   32  29  88 W9        29.65F FOG     WCI  24
FREEPORT*      CLOUDY    31  30  94 W8        29.66F FOG     WCI  24
ROCHELLE*      CLOUDY    32  31  98 W6        29.65F FOG     WCI  26
DE KALB*       CLOUDY    32  31  96 CALM      29.65S FOG
PERU*          CLOUDY    35  33  94 SW16G23   29.67F FOG     WCI  25
$$

ILZ005-006-012>014-019>023-032000-
NORTHEAST ILLINOIS

CITY           SKY/WX    TMP DP  RH WIND       PRES   REMARKS
CHICAGO-OHARE  DRIZZLE   33  31  92 SW15G21   29.63F FOG     WCI  23
CHICAGO-MIDWAY DRIZZLE   35  32  88 SW16G25   29.64F FOG     WCI  25
AURORA         CLOUDY    34  31  88 SW15      29.66F FOG     WCI  24
LANSING*       CLOUDY    33  32  96 SW18G25   29.65F FOG     WCI  22
JOLIET*        CLOUDY    34  33  96 SW14G21   29.67S FOG     WCI  24
WAUKEGAN       CLOUDY    32  31  96 SW8G17    29.60F FOG     WCI  25
DUPAGE AIRPORT LGT RAIN  33  31  92 SW16      29.64S FOG     WCI  23
KANKAKEE*      CLOUDY    35  34  96 SW22      29.69S FOG     WCI  23
WHEELING       CLOUDY    33  30  88 SW14G21   29.64F FOG     WCI  23
MORRIS*        CLOUDY    35  34  98 SW18      29.66F FOG     WCI  24
ROMEOVILLE*    DRIZZLE   33  33  99 SW20      29.65F WCI  22
NORTHERLY ISL    N/A     34  31  89 S5          N/A  WCI  30
$$

LMZ740>746-032000-
SOUTHERN LAKE MICHIGAN

STATION/POSITION SKY/WX   TEMP    WIND        PRES    VSBY  WAVE
                          AIR SEA DIR/SP/G                  HT/PER
                          (F)     (DEG/KT/KT) (MB)    (MI)  (FT/S)
WAUKEGAN HARBOR            32                   N/A
HARRISON CRIB              33     210/ 24/ 30   N/A
BURNHAM HARBOR             34     220/  5/ 17   N/A
CALUMET HARBOR             34     210/ 12/ 19 1002.5F
MICHIGAN CITY              33     170/ 18/ 24   N/A
$$

ILZ025>027-034>036-040-047-049-050-058-095>099-032000-
WEST-CENTRAL ILLINOIS

CITY           SKY/WX    TMP DP  RH WIND       PRES   REMARKS
QUINCY         CLOUDY    38  36  92 W12       29.75F FOG     WCI  30
GALESBURG*     CLOUDY    34  34  99 SW12      29.70S FOG     WCI  26
MACOMB*        CLOUDY    36  35  98 W18G25    29.74F WCI  25
JACKSONVILLE*  CLOUDY    39  37  93 SW13      29.76F FOG     WCI  32
PITTSFIELD*    CLOUDY    41  38  91 SW15      29.78S FOG
$$

ILZ028>032-037-038-041>044-048-051>054-059>061-032000-
CENTRAL ILLINOIS

CITY           SKY/WX    TMP DP  RH WIND       PRES   REMARKS
PONTIAC        CLOUDY    37  36  96 SW17G25   29.70S FOG     WCI  27
BLOOMINGTON    FOG       36  36 100 SW20      29.72R VSB 1/2 WCI  25
DECATUR        FOG       37  36  96 SW15      29.76F VSB 1   WCI  28
PEORIA         CLOUDY    36  33  89 SW12      29.72F FOG     WCI  28
LACON*         CLOUDY    35  32  90 SW13G20   29.69F FOG     WCI  26
LINCOLN*       CLOUDY    39  37  93 SW9G18    29.76S FOG     WCI  33
SPRINGFIELD    CLOUDY    39  36  89 SW13G21   29.76S FOG     WCI  31
TAYLORVILLE    FOG       36  34  93 SW10      29.78F VSB 1   WCI  28
$$

ILZ033-039-045-046-055>057-062-063-032000-
EAST-CENTRAL ILLINOIS

CITY           SKY/WX    TMP DP  RH WIND       PRES   REMARKS
CHAMPAIGN      FOG       36  35  96 SW18      29.75F VSB 1/2 WCI  26
DANVILLE*      LGT RAIN  37  36  97 SW14      29.71F WCI  28
RANTOUL*       CLOUDY    38  37  96 SW21G26   29.73F FOG     WCI  27
MATTOON        MIX PCPN  37  37 100 SW9       29.76F VSB 3/4 WCI  30
PARIS*         DRIZZLE   37  37  99 SW15G23   29.77F WCI  28
$$

ILZ079-100>102-032000-
SOUTHWEST ILLINOIS

CITY           SKY/WX    TMP DP  RH WIND       PRES   REMARKS
ALTON          CLOUDY    41  39  93 SW9       29.80F FOG
BELLEVILLE     CLOUDY    41  41  99 VRB3      29.79S
CAHOKIA*       CLOUDY    47  42  83 W5        29.80S
SPARTA*        CLOUDY    41  39  92 S14       29.81F
$$

ILZ064>066-069>071-074>076-080>082-084>086-088>090-092>094-032000-
SOUTH-CENTRAL ILLINOIS

CITY           SKY/WX    TMP DP  RH WIND       PRES   REMARKS
CARBONDALE     CLOUDY    44  41  89 SW18G24   29.86F
CAIRO*         FOG      N/A N/A N/A SW10      29.92F VSB 1/4
EFFINGHAM*     LGT RAIN  42  39  90 S12       29.81F
MARION         CLOUDY    45  45 100 S17       29.88F FOG
MT. VERNON     CLOUDY    41  37  87 SW15      29.83F
CENTRALIA*     LGT RAIN  42  38  89 SW13      29.81F
SALEM*         LGT RAIN  43  41  91 SW15G23   29.81F
METROPOLIS*    FOG       47  47 100 SW8       29.91F VSB 1/4
$$

ILZ067-068-072-073-078-083-087-091-032000-
SOUTHEAST ILLINOIS

CITY           SKY/WX    TMP DP  RH WIND       PRES   REMARKS
LAWRENCEVILLE  CLOUDY    41  39  93 S17       29.82F FOG
FLORA*         DRIZZLE   41  40  97 S14       29.81F
FAIRFIELD*     CLOUDY    44  43  96 S13       29.82F
HARRISBURG*    CLOUDY    45  45 100 SW17G24   29.88F FOG
ROBINSON*      RAIN      40  40  98 SW17      29.81F
CARMI*         CLOUDY    48  47  97 SW16G26   29.86F
$$

ABBREVIATIONS USED IN REMARKS
   TC - TEMPERATURE IN CELSIUS
  WCI - WIND CHILL INDEX
   HX - HEAT INDEX
  VSB - VISIBILITY
$$



USA.gov is the U.S. government's official web portal to all federal, state and local government web resources and services.